Time,TemperatureF,DewpointF,PressureIn,WindDirection,WindDirectionDegrees,WindSpeedMPH,WindSpeedGustMPH,Humidity,HourlyPrecipIn,Conditions,Clouds,dailyrainin,SolarRadiationWatts/m^2,SoftwareType,DateUTC
2014-12-25 00:04:00,30.5,29.0,29.59,South,191,3.0,7.0,94,0.00,OVC,OVC,0.00,0.0,WeatherDisplay:10.37,2014-12-25 06:04:00,
2014-12-25 00:09:00,30.4,28.9,29.59,SSW,201,5.0,7.0,94,0.00,OVC,OVC,0.00,0.0,WeatherDisplay:10.37,2014-12-25 06:09:00,
2014-12-25 00:14:00,30.4,28.9,29.59,SSW,200,3.0,7.0,94,0.00,OVC,OVC,0.00,0.0,WeatherDisplay:10.37,2014-12-25 06:14:00,
2014-12-25 00:19:00,30.4,28.9,29.59,SSW,194,3.0,7.0,94,0.00,OVC,OVC,0.00,0.0,WeatherDisplay:10.37,2014-12-25 06:19:00,
2014-12-25 00:24:00,30.4,28.9,29.59,SSW,194,6.0,10.0,94,0.00,OVC,OVC,0.00,0.0,WeatherDisplay:10.37,2014-12-25 06:24:00,
2014-12-25 00:29:00,30.3,28.8,29.59,SSW,210,5.0,8.0,94,0.00,OVC,OVC,0.00,0.0,WeatherDisplay:10.37,2014-12-25 06:29:00,
2014-12-25 00:34:00,30.3,28.8,29.59,SSW,207,5.0,7.0,94,0.00,OVC,OVC,0.00,0.0,WeatherDisplay:10.37,2014-12-25 06:34:00,
2014-12-25 00:39:00,30.2,28.7,29.59,SSW,204,5.0,7.0,94,0.00,OVC,OVC,0.00,0.0,WeatherDisplay:10.37,2014-12-25 06:39:00,
2014-12-25 00:44:00,30.2,28.7,29.59,South,182,5.0,10.0,94,0.00,OVC,OVC,0.00,0.0,WeatherDisplay:10.37,2014-12-25 06:44:00,
2014-12-25 00:49:00,30.2,28.7,29.59,South,189,6.0,9.0,94,0.00,OVC,OVC,0.00,0.0,WeatherDisplay:10.37,2014-12-25 06:49:00,
2014-12-25 00:59:00,30.1,28.6,29.59,SSW,194,5.0,12.0,94,0.00,OVC,OVC,0.00,0.0,WeatherDisplay:10.37,2014-12-25 06:59:00,
2014-12-25 01:04:00,30.1,28.6,29.59,SSW,203,7.0,12.0,94,0.00,OVC,OVC,0.00,0.0,WeatherDisplay:10.37,2014-12-25 07:04:00,
2014-12-25 01:09:00,30.1,28.6,29.59,SSW,194,5.0,10.0,94,0.00,OVC,OVC,0.00,0.0,WeatherDisplay:10.37,2014-12-25 07:09:00,
2014-12-25 01:19:00,30.2,28.7,29.59,SSW,193,5.0,8.0,94,0.00,OVC,OVC,0.00,0.0,WeatherDisplay:10.37,2014-12-25 07:19:00,
2014-12-25 01:29:00,30.1,28.6,29.59,South,183,6.0,9.0,94,0.00,OVC,OVC,0.00,0.0,WeatherDisplay:10.37,2014-12-25 07:29:00,
2014-12-25 01:34:00,30.1,28.6,29.60,South,187,5.0,9.0,94,0.00,OVC,OVC,0.00,0.0,WeatherDisplay:10.37,2014-12-25 07:34:00,
2014-12-25 01:39:00,30.1,28.6,29.60,SSW,193,5.0,8.0,94,0.00,OVC,OVC,0.00,0.0,WeatherDisplay:10.37,2014-12-25 07:39:00,
2014-12-25 01:44:00,30.1,28.6,29.60,SSW,202,3.0,8.0,94,0.00,OVC,OVC,0.00,0.0,WeatherDisplay:10.37,2014-12-25 07:44:00,
2014-12-25 01:49:00,30.1,28.3,29.60,SW,215,6.0,8.0,93,0.00,OVC,OVC,0.00,0.0,WeatherDisplay:10.37,2014-12-25 07:49:00,
2014-12-25 01:59:00,30.1,28.3,29.61,SSW,206,6.0,9.0,93,0.00,OVC,OVC,0.00,0.0,WeatherDisplay:10.37,2014-12-25 07:59:00,
2014-12-25 02:04:00,30.1,28.3,29.61,SSW,207,6.0,10.0,93,0.00,OVC,OVC,0.00,0.0,WeatherDisplay:10.37,2014-12-25 08:04:00,
2014-12-25 02:09:00,30.1,28.3,29.61,SSW,207,5.0,7.0,93,0.00,OVC,OVC,0.00,0.0,WeatherDisplay:10.37,2014-12-25 08:09:00,
2014-12-25 02:19:00,30.1,28.3,29.61,SSW,194,6.0,10.0,93,0.00,OVC,OVC,0.00,0.0,WeatherDisplay:10.37,2014-12-25 08:19:00,
2014-12-25 02:29:00,30.1,28.3,29.60,South,189,3.0,13.0,93,0.00,OVC,OVC,0.00,0.0,WeatherDisplay:10.37,2014-12-25 08:29:00,
2014-12-25 02:39:00,30.1,28.3,29.61,South,185,5.0,10.0,93,0.00,OVC,OVC,0.00,0.0,WeatherDisplay:10.37,2014-12-25 08:39:00,
2014-12-25 02:44:00,30.1,28.3,29.61,South,184,5.0,7.0,93,0.00,OVC,OVC,0.00,0.0,WeatherDisplay:10.37,2014-12-25 08:44:00,
2014-12-25 02:49:00,30.1,28.3,29.61,South,186,5.0,8.0,93,0.00,OVC,OVC,0.00,0.0,WeatherDisplay:10.37,2014-12-25 08:49:00,
2014-12-25 02:59:00,30.1,28.3,29.61,South,175,2.0,6.0,93,0.00,OVC,OVC,0.00,0.0,WeatherDisplay:10.37,2014-12-25 08:59:00,
2014-12-25 03:04:00,30.1,28.3,29.61,South,187,5.0,9.0,93,0.00,BKN,BKN,0.00,0.0,WeatherDisplay:10.37,2014-12-25 09:04:00,
2014-12-25 03:09:00,30.1,28.3,29.61,SSW,196,3.0,9.0,93,0.00,BKN,BKN,0.00,0.0,WeatherDisplay:10.37,2014-12-25 09:09:00,
2014-12-25 03:14:00,30.1,28.3,29.61,SSW,204,5.0,7.0,93,0.00,BKN,BKN,0.00,0.0,WeatherDisplay:10.37,2014-12-25 09:14:00,
2014-12-25 03:19:00,30.0,28.2,29.61,South,184,3.0,8.0,93,0.00,BKN,BKN,0.00,0.0,WeatherDisplay:10.37,2014-12-25 09:19:00,
2014-12-25 03:29:00,30.0,28.2,29.61,SSW,196,5.0,8.0,93,0.00,BKN,BKN,0.00,0.0,WeatherDisplay:10.37,2014-12-25 09:29:00,
2014-12-25 03:34:00,29.9,28.2,29.61,South,191,5.0,8.0,93,0.00,BKN,BKN,0.00,0.0,WeatherDisplay:10.37,2014-12-25 09:34:00,
2014-12-25 03:39:00,29.9,28.1,29.61,South,189,5.0,8.0,93,0.00,BKN,BKN,0.00,0.0,WeatherDisplay:10.37,2014-12-25 09:39:00,
2014-12-25 03:49:00,29.9,28.1,29.61,SSW,204,5.0,12.0,93,0.00,BKN,BKN,0.00,0.0,WeatherDisplay:10.37,2014-12-25 09:49:00,
2014-12-25 03:54:00,29.9,28.2,29.61,SSW,203,5.0,7.0,93,0.00,BKN,BKN,0.00,0.0,WeatherDisplay:10.37,2014-12-25 09:54:00,
2014-12-25 03:59:00,30.0,28.2,29.61,SSW,193,5.0,8.0,93,0.00,BKN,BKN,0.00,0.0,WeatherDisplay:10.37,2014-12-25 09:59:00,
2014-12-25 04:04:00,30.0,28.2,29.61,South,189,5.0,9.0,93,0.00,BKN,BKN,0.00,0.0,WeatherDisplay:10.37,2014-12-25 10:04:00,
2014-12-25 04:09:00,30.0,28.2,29.61,South,184,5.0,12.0,93,0.00,BKN,BKN,0.00,0.0,WeatherDisplay:10.37,2014-12-25 10:09:00,
2014-12-25 04:14:00,30.0,28.2,29.61,South,181,6.0,14.0,93,0.00,BKN,BKN,0.00,0.0,WeatherDisplay:10.37,2014-12-25 10:14:00,
2014-12-25 04:19:00,30.0,28.2,29.61,South,190,6.0,10.0,93,0.00,BKN,BKN,0.00,0.0,WeatherDisplay:10.37,2014-12-25 10:19:00,
2014-12-25 04:24:00,30.0,28.2,29.61,SSW,200,6.0,8.0,93,0.00,BKN,BKN,0.00,0.0,WeatherDisplay:10.37,2014-12-25 10:24:00,
2014-12-25 04:29:00,30.0,28.2,29.62,South,187,5.0,8.0,93,0.00,BKN,BKN,0.00,0.0,WeatherDisplay:10.37,2014-12-25 10:29:00,
2014-12-25 04:34:00,30.0,28.2,29.62,South,188,5.0,9.0,93,0.00,BKN,BKN,0.00,0.0,WeatherDisplay:10.37,2014-12-25 10:34:00,
2014-12-25 04:39:00,30.0,28.2,29.62,South,190,6.0,9.0,93,0.00,BKN,BKN,0.00,0.0,WeatherDisplay:10.37,2014-12-25 10:39:00,
2014-12-25 04:49:00,30.0,28.2,29.62,South,181,3.0,9.0,93,0.00,BKN,BKN,0.00,0.0,WeatherDisplay:10.37,2014-12-25 10:49:00,
2014-12-25 04:59:00,30.0,28.2,29.62,South,178,6.0,9.0,93,0.00,BKN,BKN,0.00,0.0,WeatherDisplay:10.37,2014-12-25 10:59:00,
2014-12-25 05:04:00,30.0,28.2,29.62,South,188,5.0,9.0,93,0.00,OVC,OVC,0.00,0.0,WeatherDisplay:10.37,2014-12-25 11:04:00,
2014-12-25 05:09:00,30.0,28.2,29.62,SSW,203,5.0,9.0,93,0.00,OVC,OVC,0.00,0.0,WeatherDisplay:10.37,2014-12-25 11:09:00,
2014-12-25 05:14:00,29.9,28.2,29.63,SSW,202,5.0,7.0,93,0.00,OVC,OVC,0.00,0.0,WeatherDisplay:10.37,2014-12-25 11:14:00,
2014-12-25 05:19:00,29.9,28.1,29.63,SSW,194,6.0,9.0,93,0.00,OVC,OVC,0.00,0.0,WeatherDisplay:10.37,2014-12-25 11:19:00,
2014-12-25 05:24:00,29.9,28.1,29.63,SSW,204,5.0,9.0,93,0.00,OVC,OVC,0.00,0.0,WeatherDisplay:10.37,2014-12-25 11:24:00,
2014-12-25 05:29:00,29.9,28.2,29.63,SSW,193,2.0,9.0,93,0.00,OVC,OVC,0.00,0.0,WeatherDisplay:10.37,2014-12-25 11:29:00,
2014-12-25 05:39:00,30.0,28.2,29.64,SW,216,3.0,6.0,93,0.00,OVC,OVC,0.00,0.0,WeatherDisplay:10.37,2014-12-25 11:39:00,
2014-12-25 05:44:00,30.0,28.2,29.64,South,188,3.0,8.0,93,0.00,OVC,OVC,0.00,0.0,WeatherDisplay:10.37,2014-12-25 11:44:00,
2014-12-25 05:49:00,30.1,28.3,29.65,South,188,2.0,8.0,93,0.00,OVC,OVC,0.00,0.0,WeatherDisplay:10.37,2014-12-25 11:49:00,
2014-12-25 05:59:00,30.1,28.3,29.65,SSW,210,3.0,7.0,93,0.00,OVC,OVC,0.00,0.0,WeatherDisplay:10.37,2014-12-25 11:59:00,
2014-12-25 06:04:00,30.1,28.3,29.65,SSW,204,2.0,7.0,93,0.00,OVC,OVC,0.00,0.0,WeatherDisplay:10.37,2014-12-25 12:04:00,
2014-12-25 06:09:00,30.2,28.4,29.65,SSW,207,5.0,12.0,93,0.00,OVC,OVC,0.00,0.0,WeatherDisplay:10.37,2014-12-25 12:09:00,
2014-12-25 06:19:00,30.2,28.4,29.66,SSW,193,5.0,9.0,93,0.00,OVC,OVC,0.00,0.0,WeatherDisplay:10.37,2014-12-25 12:19:00,
2014-12-25 06:29:00,30.2,28.4,29.67,SSW,199,6.0,9.0,93,0.00,OVC,OVC,0.00,0.0,WeatherDisplay:10.37,2014-12-25 12:29:00,
2014-12-25 06:39:00,30.1,28.3,29.67,SSW,204,3.0,7.0,93,0.00,OVC,OVC,0.00,0.0,WeatherDisplay:10.37,2014-12-25 12:39:00,
2014-12-25 06:44:00,30.1,28.3,29.67,SSW,208,3.0,7.0,93,0.00,OVC,OVC,0.00,0.0,WeatherDisplay:10.37,2014-12-25 12:44:00,
2014-12-25 06:49:00,30.1,28.6,29.67,SSW,204,3.0,8.0,94,0.00,OVC,OVC,0.00,0.0,WeatherDisplay:10.37,2014-12-25 12:49:00,
2014-12-25 06:59:00,30.1,28.6,29.66,SSW,198,3.0,8.0,94,0.00,OVC,OVC,0.00,0.0,WeatherDisplay:10.37,2014-12-25 12:59:00,
2014-12-25 07:04:00,30.1,28.5,29.66,SSW,200,3.0,7.0,94,0.00,-SN,-SN,0.00,0.0,WeatherDisplay:10.37,2014-12-25 13:04:00,
2014-12-25 07:09:00,30.1,28.6,29.66,SSW,193,3.0,7.0,94,0.00,-SN,-SN,0.00,0.0,WeatherDisplay:10.37,2014-12-25 13:09:00,